Погода в Сары-Тюзе

Россия / Карачаево-Черкесская Республика     43°54′09″N   41°53′47″E
темп.,
°C
ветер,
м/с
пор.,
м/с
влажн.,
%
обл.,
%
осадки,
мм/ч
давл.,
гПа
погр.,
м
13 мая, чт
чт1300:00+8ю32575 0.0 101318
03:00+9ю33390 0.0 101318
06:00+10ю22530 0.0 101319
09:00+18ссв21440 0.0 1013370
12:00+20св34420 0.0 1013821
15:00+20всв45535 0.0 1012833
18:00+19всв23769 0.0 1013136
21:00+14ю3384100 0.0 101418
14 мая, пт
пт1400:00+14ю336246 0.0 101328
03:00+14ю43390 0.0 101327
06:00+14ю43480 0.0 101428
09:00+23св11370 0.0 1012339
12:00+25св34370 0.0 10121068
15:00+25всв56465 0.0 1011896
18:00+22всв227097 0.0 101136
21:00+15ю7107028 0.1 1014151
15 мая, сб
сб1500:00+15ю4460100 0.0 101352
03:00+15ю435498 0.0 101333
06:00+15ю33601 0.0 101530
09:00+21сз11570 0.0 1014406
12:00+23ссв33571 0.0 1014997
15:00+22св56640 0.0 10131232
18:00+19в2280100 1.1 101433
21:00+15ю3382100 3.8 101429
16 мая, вс
вс1600:00+14ююв228192 0.0 101215
03:00+13ю327646 0.0 101218
06:00+14ю227586 0.0 101123
09:00+20ссв216097 0.0 1009438
12:00+23св335790 0.0 10071093
15:00+23всв66624 0.0 10061011
18:00+21с1277100 0.4 1005101
21:00+17ююв2281100 0.6 100512
17 мая, пн
пн1700:00+16ю3368100 0.0 100530
03:00+16ю33563 0.0 100524
06:00+16ю33620 0.0 100527
09:00+24с01455 0.0 1005350
12:00+24ссв4456100 0.0 1005737
15:00+19всв2472100 3.3 1007271
18:00+14ююз4590100 4.1 1011160
21:00+13ююв118128 4.3 101110